Location: Grand Mesa Observatory
(38.9638°N, 108.2379°W)
Time: 22:20:57
(UTC-06:00)

OTV 5 (USA 277) - Visible Passes

Search period start: 22 July 2018 00:00
Search period end: 01 August 2018 00:00
Orbit: 312 x 321 km, 54.5° (Epoch: 05 July)

Date Brightness Start Highest point End Pass type
(mag) Time Alt. Az. Time Alt. Az. Time Alt. Az.
27 Jul ? 05:09:08 10° S 05:11:07 18° SE 05:13:06 10° E visible
28 Jul ? 05:23:00 12° SW 05:25:25 60° SE 05:28:05 10° NE visible
29 Jul ? 04:06:16 11° ESE 04:06:16 11° ESE 04:06:38 10° ESE visible
29 Jul ? 05:37:20 10° WSW 05:39:52 39° NW 05:42:26 10° NNE visible
30 Jul ? 04:20:20 31° ESE 04:20:20 31° ESE 04:22:33 10° ENE visible
31 Jul ? 04:34:20 69° WNW 04:34:29 72° NW 04:37:10 10° NE visible
